Theta_e
311 311 312 313 314 314 314 314 312 313 315 316 313 313 314 315 315 314 316 317 313 310 311 310 309 306 304 304 303 303 303 303 302 300 299 298 299 300 298 298 298 297 295 295 294 293 291 305 305 301 306 309 315 318
312 313 313 313 314 314 314 314 313 313 314 316 313 313 314 314 314 314 316 316 316 314 312 313 312 311 310 310 307 304 304 302 305 302 300 300 298 299 296 295 299 297 301 301 299 299 305 306 306 308 308 307 312 319
312 312 312 313 313 313 314 314 313 312 313 316 313 312 313 314 313 312 314 313 316 314 312 311 309 313 314 311 311 307 306 305 303 304 304 302 298 300 297 298 298 300 302 302 302 304 305 306 307 309 310 310 312 318
311 312 313 313 313 313 313 314 313 312 313 315 313 312 313 313 312 311 314 313 316 311 307 308 314 311 313 313 311 311 308 306 304 306 304 303 301 301 299 300 301 302 302 301 301 305 306 306 307 308 311 312 313 315
311 312 312 312 312 312 313 313 313 313 313 315 312 312 312 313 311 312 313 315 316 314 306 308 310 311 312 313 311 311 310 309 307 305 305 303 303 302 302 302 301 304 303 301 299 305 307 306 308 309 309 311 313 314
311 312 312 312 312 312 313 313 313 313 314 314 311 312 312 311 310 318 313 317 316 316 311 304 311 310 312 313 312 311 310 307 307 306 303 303 302 302 300 299 302 306 306 305 306 307 307 309 309 310 309 309 312 314
310 312 312 312 312 312 312 313 313 313 314 312 310 311 310 310 311 315 310 314 311 317 313 305 305 311 312 311 311 311 310 308 308 305 305 305 303 303 301 296 301 306 307 307 309 309 307 307 308 310 310 308 309 312
309 311 312 311 312 312 312 312 312 312 314 310 310 310 310 309 310 315 319 311 313 316 315 304 304 306 311 308 307 309 309 309 305 304 303 303 301 297 295 302 303 305 305 306 308 309 308 309 310 309 310 309 308 309
309 310 312 311 311 311 312 312 313 313 310 309 310 310 313 314 315 317 315 314 319 315 310 307 304 301 310 307 309 309 309 305 304 303 302 301 292 287 301 303 303 305 306 306 308 308 308 308 308 309 309 308 307 308
309 309 311 311 311 311 312 312 313 309 308 309 310 312 311 316 318 318 315 310 312 312 312 309 307 304 308 306 306 307 305 303 300 301 301 299 293 302 303 304 306 306 308 309 305 303 305 306 306 307 308 310 310 308
309 309 310 311 311 312 312 310 308 308 309 310 310 313 313 312 316 312 308 305 305 304 308 309 308 305 309 305 305 307 302 301 297 299 299 297 296 302 305 305 305 306 309 310 309 308 308 309 308 308 308 310 311 308
309 309 310 311 312 312 308 308 307 308 308 307 310 308 313 311 307 304 304 305 304 301 306 306 306 309 307 310 306 303 300 300 294 301 298 291 301 306 305 305 305 306 309 308 309 308 309 309 309 309 309 309 311 312
309 309 311 311 311 308 308 307 307 308 307 310 310 308 307 305 295 298 296 300 301 306 307 305 304 307 304 307 304 302 298 297 301 297 295 299 306 305 306 308 308 307 307 307 309 309 309 310 310 310 310 310 310 311
308 308 310 309 308 308 308 308 309 307 307 307 303 293 299 298 301 302 302 305 309 307 307 307 305 306 305 304 303 298 299 300 295 292 294 304 309 310 307 308 309 307 308 309 310 310 310 309 310 311 311 312 311 311
308 308 308 308 309 310 309 308 309 308 307 303 305 294 299 305 306 308 309 308 310 310 306 306 306 307 301 300 301 299 295 294 296 296 301 306 311 310 307 306 309 310 310 310 311 310 310 310 310 307 306 307 307 308
308 308 308 308 309 309 308 308 306 307 305 303 303 302 305 304 305 307 310 310 311 309 309 308 304 301 300 301 297 297 295 294 299 304 307 307 309 309 309 308 310 311 311 311 310 308 305 305 305 304 304 305 304 305
308 309 308 308 309 308 308 305 305 302 301 301 301 305 305 304 304 308 310 311 314 308 305 306 300 300 303 299 297 301 298 302 306 307 305 308 310 310 309 310 309 308 308 307 305 305 305 305 304 303 302 302 304 305
308 308 308 308 308 308 309 307 304 303 299 302 300 303 305 306 305 307 310 312 311 310 309 305 306 300 300 297 299 305 306 309 308 307 306 308 308 309 309 308 307 307 305 305 304 302 303 303 302 301 303 303 305 305
308 308 308 308 308 307 306 307 307 301 303 306 307 307 306 307 308 308 312 313 315 315 313 310 305 303 304 307 307 307 308 308 307 307 307 308 309 308 306 306 305 305 305 303 303 301 302 303 303 303 303 305 303 304
308 308 309 309 308 304 301 304 309 304 301 305 306 305 306 308 310 312 311 312 313 312 309 306 307 309 309 313 311 312 313 312 308 307 308 305 307 306 304 304 304 304 303 302 301 300 302 302 303 304 304 304 305 304
308 308 309 308 306 305 304 305 306 308 309 307 309 308 308 310 312 312 311 312 310 309 308 310 311 314 314 315 315 315 314 311 311 314 310 302 304 304 303 304 303 303 302 301 302 301 300 303 304 303 303 304 305 306
308 309 306 307 304 304 302 305 303 306 305 308 306 308 306 306 309 311 312 309 309 311 312 313 315 314 314 315 317 316 316 314 312 310 304 302 302 301 301 303 303 302 302 303 304 304 304 305 307 306 305 305 301 306
308 308 307 306 302 299 298 308 305 307 302 304 307 303 303 303 306 311 308 310 312 316 316 313 314 315 317 318 317 314 313 311 308 308 304 305 304 305 304 304 304 303 303 304 306 305 305 301 302 306 307 306 307 307
307 304 302 301 299 293 304 303 306 306 306 304 304 302 303 306 308 308 305 309 313 313 313 315 317 317 316 315 315 312 311 312 310 309 308 306 306 305 306 304 305 306 307 307 306 305 305 306 302 305 306 306 306 305
296 295 297 288 301 300 299 301 302 303 301 303 302 303 304 306 304 303 304 310 310 312 315 317 317 316 314 314 314 311 311 310 308 306 305 306 305 304 304 306 306 307 307 306 304 304 305 306 306 306 305 305 304 303
290 298 293 298 299 300 301 298 300 299 301 301 303 306 307 304 300 300 306 311 311 313 314 315 315 313 314 314 312 310 306 311 308 304 305 305 307 308 305 304 303 304 307 307 305 304 304 305 305 305 304 303 295 303
293 297 301 305 304 303 302 304 306 301 300 300 304 302 303 298 299 306 312 313 313 314 316 316 316 315 315 313 312 308 307 309 309 306 306 309 311 311 309 307 306 307 308 307 306 306 305 305 304 305 304 303 303 304
300 302 299 302 303 304 300 301 300 301 303 307 305 300 299 296 298 312 314 313 311 311 313 312 313 316 316 314 310 306 303 302 300 300 301 304 306 308 309 309 308 296 307 308 307 307 306 306 306 305 304 302 303 305
300 305 303 299 301 302 302 301 302 306 310 306 304 303 304 311 314 313 313 310 310 311 310 309 308 311 310 309 309 307 305 304 304 303 302 302 303 304 305 306 305 306 306 306 296 302 306 306 306 305 304 304 304 306
299 303 301 301 299 298 302 306 308 312 312 311 310 312 312 311 312 315 315 311 309 308 309 310 310 310 308 307 305 305 307 309 309 306 303 303 304 306 305 305 305 305 305 306 305 302 294 301 299 304 303 303 303 303
303 302 300 299 298 302 305 308 308 307 307 306 309 309 309 310 312 313 313 311 310 307 307 306 308 309 308 307 307 307 306 308 306 306 306 307 306 306 306 306 305 306 306 305 305 304 304 303 303 302 302 302 302 301
301 300 300 298 300 306 306 304 303 302 304 306 309 311 309 308 306 309 311 309 307 306 304 306 307 307 309 310 311 310 298 309 309 308 306 306 305 306 306 306 306 306 306 305 305 305 304 303 303 302 302 302 302 303
301 301 301 299 300 302 306 306 306 306 309 308 308 310 309 307 304 310 314 313 311 309 309 309 310 310 310 310 309 308 299 307 304 297 296 296 297 300 305 305 305 305 304 304 304 303 303 303 302 302 303 303 304 304
Wind_Speed
16 15 15 15 14 13 12 10 9 12 12 9 11 13 13 12 11 4 1 2 2 2 2 2 3 4 3 1 1 3 3 2 1 2 1 2 1 2 1 1 1 2 1 1 1 1 3 8 2 3 6 6 6 9
15 16 16 15 14 12 11 11 9 11 12 10 10 11 12 11 10 4 1 2 1 2 4 1 2 3 2 3 4 1 2 2 1 3 1 3 3 2 1 2 2 3 1 1 3 2 3 4 3 8 6 7 5 9
17 17 15 13 12 12 11 11 9 9 12 11 9 11 12 10 10 6 1 3 1 1 3 2 3 4 3 4 2 1 2 3 3 3 2 2 2 2 3 2 2 3 3 2 4 5 2 1 1 4 5 6 5 6
16 17 15 12 11 11 11 10 9 8 11 10 8 9 10 9 8 4 1 2 0 2 2 2 3 3 6 4 4 3 7 6 5 0 2 2 1 3 1 1 2 1 2 2 2 3 4 1 4 5 6 4 6 8
16 16 14 12 12 10 11 10 9 8 9 8 7 9 9 9 8 0 0 1 1 2 3 3 1 4 5 4 12 8 7 4 2 2 1 2 2 3 1 1 3 5 4 4 3 2 1 3 4 4 3 2 4 9
16 14 13 12 12 11 9 10 10 8 8 7 7 8 8 8 6 2 1 2 1 2 2 4 2 1 3 7 11 10 6 5 3 2 3 2 3 3 2 2 2 5 4 2 1 1 1 4 4 5 5 2 3 5
16 15 12 11 11 10 10 9 9 7 8 7 6 7 8 7 3 2 1 2 2 2 1 4 3 2 1 2 3 2 4 3 2 3 2 2 2 3 1 3 2 7 5 4 3 2 3 1 2 6 5 3 5 3
15 15 12 10 9 8 7 7 8 7 7 7 7 7 8 7 6 2 0 3 3 2 1 3 3 3 3 2 2 2 2 2 4 2 2 1 2 2 4 7 3 6 4 4 4 4 3 3 3 3 3 2 6 8
14 14 11 8 6 5 5 6 7 6 6 6 7 8 1 3 2 2 4 4 1 1 2 2 5 3 3 2 2 2 1 2 1 2 2 1 1 5 7 6 9 9 7 4 4 3 3 4 5 5 4 3 6 9
13 13 11 8 6 5 5 7 5 5 5 5 1 3 3 2 3 4 1 2 1 1 0 3 2 4 4 2 3 2 1 2 2 2 2 2 5 8 8 7 6 9 8 7 5 4 4 5 4 2 3 4 6 7
13 12 10 8 6 4 3 3 3 4 1 2 3 2 2 2 2 1 2 3 2 3 4 2 4 5 3 3 3 1 2 1 1 3 3 2 4 4 5 11 8 7 9 8 3 3 3 2 2 3 2 2 4 2
13 11 10 6 5 3 3 1 4 3 1 1 1 1 2 2 1 3 3 2 5 5 5 5 5 2 4 2 3 3 1 2 2 4 3 3 5 6 7 9 11 11 11 8 6 5 6 5 3 3 1 1 1 1
11 10 6 4 3 3 2 3 5 1 3 2 2 2 2 2 2 6 7 4 4 5 6 5 5 4 4 2 4 3 4 2 4 3 4 6 3 4 8 8 10 11 12 9 8 6 4 5 4 4 1 1 1 3
10 7 6 4 3 1 3 6 6 0 2 2 3 1 4 4 5 6 4 3 2 2 7 7 5 3 2 4 3 4 2 3 3 3 6 4 8 8 8 9 10 13 13 13 11 9 7 6 5 2 1 0 1 2
9 9 4 3 4 4 2 5 6 1 2 1 1 4 7 4 3 3 3 1 2 4 7 5 4 2 2 4 2 4 4 5 5 5 4 4 3 7 9 12 11 11 11 10 10 8 6 5 5 5 3 3 3 2
9 7 1 5 3 7 5 3 3 1 3 1 5 4 3 2 3 3 3 3 4 3 2 0 3 3 4 3 5 6 5 6 3 4 6 2 4 5 8 10 10 9 9 7 8 8 8 7 5 4 3 3 4 4
6 0 3 6 7 8 8 3 3 2 5 4 4 4 4 4 4 2 3 2 5 6 4 3 6 5 4 4 4 5 5 5 5 5 3 4 5 6 9 10 10 10 10 11 11 10 9 7 6 5 4 4 3 2
1 2 2 3 2 3 2 2 3 3 6 5 4 2 3 3 3 2 2 3 5 3 4 3 4 5 5 5 4 5 6 5 3 4 3 3 4 7 10 11 11 12 12 11 9 9 7 7 7 6 6 4 3 4
1 2 3 2 1 0 2 4 3 4 6 2 4 3 3 3 5 3 2 3 2 1 3 3 3 4 8 4 5 2 3 3 4 1 0 2 6 10 10 11 11 12 12 11 9 6 5 6 6 5 5 3 4 4
7 7 6 5 3 1 3 2 2 3 3 1 2 3 3 2 1 2 3 4 4 3 3 4 6 6 4 4 3 2 1 2 3 3 2 4 5 10 12 11 9 10 9 9 7 5 6 5 4 4 4 3 1 2
1 3 5 3 2 3 2 2 4 3 3 3 1 2 3 2 3 4 3 5 3 3 4 5 5 6 4 2 3 2 3 5 6 5 4 5 8 8 9 9 10 8 8 7 8 7 5 4 4 5 5 4 3 2
1 4 2 1 2 3 4 3 3 2 3 3 3 3 3 3 3 3 4 3 4 4 5 4 3 3 5 5 4 4 4 6 6 3 7 13 9 8 7 7 9 8 7 8 7 7 5 5 4 4 4 4 4 2
3 2 2 3 2 3 4 2 4 4 4 2 2 3 3 2 1 3 3 3 4 4 2 3 3 3 4 3 2 1 3 7 6 6 8 6 6 6 6 9 7 8 8 7 6 5 5 4 5 4 4 4 2 1
1 2 3 4 5 4 2 4 4 3 3 3 3 3 3 2 3 3 3 3 3 1 3 4 4 3 2 2 1 2 4 5 3 4 7 11 9 7 8 8 8 6 6 8 7 6 5 5 5 5 4 4 2 0
2 2 3 4 3 4 5 4 5 3 4 4 3 3 2 2 3 3 3 2 1 2 2 3 2 2 2 1 2 3 5 7 8 8 2 3 5 6 5 5 6 6 7 8 7 7 7 5 5 5 5 3 3 2
3 5 6 4 3 5 3 3 3 1 2 3 2 2 1 2 3 3 1 1 2 1 2 4 3 3 2 1 3 4 5 6 7 6 4 5 7 9 9 9 8 6 6 6 8 8 8 6 6 7 6 5 4 5
4 5 5 3 3 2 4 3 1 3 4 5 2 2 1 1 2 1 0 0 1 1 1 2 3 4 2 4 2 3 5 7 7 5 6 6 6 6 8 9 10 8 10 10 9 9 9 8 7 7 6 4 4 4
3 2 5 3 4 3 4 3 3 4 4 2 3 4 1 7 5 2 1 2 2 1 2 2 1 1 3 5 5 7 7 7 8 8 7 6 3 3 4 3 4 9 7 9 10 9 8 8 7 7 6 5 4 4
4 2 3 4 4 4 4 4 3 2 3 1 2 4 5 4 2 1 1 1 1 0 2 3 4 4 6 6 6 6 8 7 9 11 11 6 4 4 4 4 5 4 4 6 5 4 9 7 8 7 6 4 3 3
4 5 4 5 5 6 4 5 3 2 2 2 2 1 2 1 1 1 0 0 1 2 2 3 5 6 7 7 8 7 3 2 2 5 7 5 4 5 5 5 5 5 5 7 8 8 10 9 9 6 5 5 4 4
2 5 5 6 6 7 9 8 5 4 4 3 2 3 1 2 1 1 1 1 2 4 5 4 4 3 5 6 7 7 5 4 3 3 2 3 5 6 6 6 6 6 7 8 9 9 10 8 7 7 7 7 6 5
5 7 4 5 4 3 4 5 5 5 4 4 3 2 2 1 1 1 1 2 3 3 4 4 5 5 5 3 4 3 1 2 6 5 7 5 5 5 6 6 7 6 7 8 7 8 10 8 7 7 7 8 7 7
5 4 6 6 4 4 3 4 4 4 2 2 2 2 2 1 2 1 1 2 2 2 2 4 2 2 5 7 5 4 4 3 5 7 6 7 10 9 7 6 6 7 9 8 7 7 8 8 8 8 8 8 7 8
Wind_Direction
314 315 309 309 311 312 308 300 308 310 317 323 332 334 338 341 352 339 52 43 288 88 102 206 165 138 143 164 266 98 221 126 86 83 139 134 154 93 174 55 26 352 6 52 108 188 194 354 306 325 3 321 252 204
305 307 306 304 306 306 304 296 295 303 308 314 325 330 329 334 345 332 247 71 334 307 70 342 4 357 320 180 139 143 38 135 108 107 152 144 145 165 151 169 200 198 325 105 249 45 22 320 337 325 313 287 300 207
301 301 299 299 300 299 293 293 281 292 300 307 318 326 328 332 348 358 357 356 256 114 97 141 79 16 51 32 310 245 173 125 140 5 122 86 145 189 168 206 204 152 182 222 197 173 244 20 65 21 338 306 298 193
301 299 299 297 297 296 289 285 273 279 292 299 311 322 323 328 339 341 18 19 84 82 126 121 340 48 350 56 71 45 114 103 98 147 87 104 145 225 162 86 243 26 179 159 276 237 268 175 50 17 28 45 110 142
298 296 295 291 290 292 291 278 266 269 283 293 307 316 323 325 334 82 91 14 308 302 124 129 130 35 38 84 78 78 99 103 84 126 89 92 98 183 86 248 238 189 170 194 234 54 348 55 8 354 357 36 153 146
307 296 288 290 287 282 281 264 257 258 278 280 298 310 313 324 318 264 212 138 341 288 136 157 26 147 82 76 77 63 60 68 62 64 86 104 64 272 188 235 217 190 195 210 57 123 262 328 346 3 298 244 204 192
311 300 291 289 284 282 269 245 249 251 272 271 291 304 310 310 285 243 315 43 31 281 151 126 161 95 124 61 61 76 58 72 41 99 84 117 137 297 200 226 196 181 175 177 217 243 222 158 27 354 348 301 179 217
304 308 295 289 292 290 255 247 247 250 251 271 291 300 303 282 264 243 62 209 210 104 334 146 130 185 185 168 149 356 98 102 42 95 140 119 112 352 245 235 215 185 181 219 227 219 296 314 298 339 349 286 214 210
306 309 298 297 294 279 260 253 255 241 254 281 304 302 197 227 186 118 106 136 80 285 189 197 165 185 155 98 86 127 9 112 75 111 94 215 74 231 226 199 193 188 195 170 163 202 248 286 311 323 330 297 248 235
310 304 301 287 282 274 253 260 233 255 276 309 254 220 163 128 107 137 146 197 168 345 160 223 115 145 189 160 129 149 56 113 191 92 149 213 258 261 248 216 199 183 177 165 183 200 213 243 257 291 345 328 287 266
314 305 305 279 272 263 251 213 260 289 197 161 199 190 72 333 200 97 191 210 164 216 187 172 193 141 180 168 147 248 144 158 215 125 247 228 260 234 198 199 196 189 184 189 198 172 188 166 180 226 248 322 343 294
324 310 298 266 263 184 180 320 327 180 254 23 73 105 151 144 96 202 203 188 221 216 170 176 163 127 136 168 131 169 177 201 223 146 230 258 243 209 183 186 183 184 185 188 199 201 201 212 210 199 219 238 310 355
335 328 316 257 169 171 130 23 14 111 140 199 193 138 118 150 175 205 190 200 224 177 165 171 143 131 140 155 91 172 191 195 139 200 240 238 244 209 194 177 172 183 191 191 188 198 199 212 203 220 243 141 206 215
331 329 351 61 131 266 22 18 4 14 251 214 178 192 201 188 238 204 200 185 172 182 155 159 120 136 129 146 136 173 82 183 221 228 236 237 227 220 184 184 169 179 185 184 184 188 197 201 197 176 193 282 254 225
328 331 292 270 198 251 324 357 343 297 259 47 70 232 218 236 257 252 217 249 163 129 150 129 103 145 130 120 149 120 172 231 226 234 230 235 225 196 184 184 187 179 181 185 183 184 186 179 170 137 91 63 35 356
335 321 24 320 236 204 203 12 18 276 20 313 232 247 213 257 240 202 197 206 151 134 140 95 132 158 175 156 172 200 192 222 233 222 234 193 220 197 190 176 180 165 162 162 160 147 135 129 125 113 89 43 14 352
323 14 42 75 94 116 130 100 56 237 233 224 237 234 251 286 267 217 194 188 148 170 182 162 177 181 119 196 204 187 214 215 223 236 239 231 231 190 168 157 147 143 143 143 140 141 129 127 122 105 84 54 48 36
274 80 85 150 82 131 126 190 219 224 238 234 238 227 198 237 250 215 209 155 163 196 164 202 137 194 195 196 201 214 229 256 256 263 245 226 193 164 155 149 142 139 136 139 133 129 140 134 118 108 110 101 95 33
185 259 331 324 173 202 212 199 226 253 238 245 247 237 238 243 231 251 178 168 179 193 162 181 204 205 221 221 239 229 237 241 271 232 281 181 171 155 136 138 137 135 137 140 148 140 144 133 116 122 119 106 54 37
277 267 257 241 194 249 241 217 217 257 265 304 235 229 233 240 160 147 144 161 166 174 189 214 230 229 220 218 181 214 251 263 202 187 149 145 150 150 149 147 138 139 140 132 126 140 150 143 143 144 131 115 43 69
262 115 104 128 185 237 264 243 237 240 289 257 253 229 246 192 205 188 168 165 177 208 225 220 235 242 211 224 209 214 204 193 212 200 168 158 160 157 144 148 137 159 153 160 160 171 193 183 161 177 183 192 214 217
118 137 118 190 233 188 263 223 272 303 252 275 251 227 243 217 203 180 137 193 220 220 211 216 231 248 241 245 241 209 222 207 206 172 127 133 152 151 157 159 149 171 171 171 170 172 178 177 179 185 199 203 220 234
185 196 185 181 228 217 259 190 243 210 241 235 227 236 214 211 141 157 221 221 247 233 228 224 229 220 249 290 292 221 207 181 154 156 146 130 134 157 156 157 159 169 164 169 173 163 163 147 174 194 185 194 189 184
190 201 213 204 201 256 226 226 218 247 236 233 228 246 191 170 158 207 248 233 230 167 200 211 208 208 194 195 223 171 157 154 127 139 149 143 161 175 177 161 168 179 169 156 167 164 169 183 171 184 196 194 182 319
132 229 152 265 234 240 227 223 207 229 233 227 225 230 155 173 215 207 242 267 250 240 212 179 195 211 236 117 122 138 158 162 163 148 104 136 107 116 134 154 163 156 157 157 163 173 181 188 188 189 186 189 192 194
203 205 183 213 206 227 235 248 153 101 340 279 266 92 185 214 235 248 245 338 358 274 195 205 211 191 185 200 157 174 171 168 141 129 137 153 161 180 170 168 167 170 190 181 171 183 180 183 191 194 203 190 186 220
221 221 205 228 274 285 261 220 139 217 225 204 215 127 236 298 278 285 92 211 257 64 297 260 234 233 177 153 154 108 129 157 140 140 140 169 157 177 182 174 187 181 172 182 187 189 191 189 193 193 193 176 175 182
259 237 209 174 216 230 277 268 227 230 217 170 141 17 85 167 246 252 11 44 9 353 46 55 71 128 136 127 134 129 106 107 102 103 107 97 102 154 178 168 123 144 169 190 194 191 192 191 191 182 179 185 173 181
225 201 200 232 232 238 231 232 247 257 133 167 192 195 182 192 215 255 82 109 99 201 95 101 80 107 106 110 129 131 142 144 137 139 135 130 147 159 174 168 156 167 174 174 173 195 186 181 173 160 169 170 148 167
228 191 217 221 220 226 227 205 235 131 203 243 290 213 165 171 358 346 290 163 152 122 119 123 134 136 135 144 140 137 138 159 187 174 163 167 167 126 148 155 159 152 145 142 138 126 121 130 126 137 161 175 191 197
209 186 215 233 250 240 239 254 260 273 258 246 219 264 28 106 100 80 111 84 126 126 134 133 134 153 148 149 161 170 178 191 197 167 135 143 140 144 146 143 136 136 140 141 147 153 152 157 164 173 184 197 194 220
196 208 210 222 244 235 218 213 215 220 222 189 170 126 139 128 81 79 118 151 135 165 171 179 165 174 195 179 185 184 174 190 181 186 179 157 142 148 148 138 136 138 139 140 146 153 166 175 184 193 206 217 222 229
202 204 220 254 256 240 184 197 179 152 140 129 103 104 78 78 88 81 169 233 292 303 218 207 209 199 184 190 193 200 214 207 169 161 150 120 145 154 155 152 150 157 157 157 163 169 181 195 207 214 217 223 228 238